Petersburg, AK

7:26 PM AKDT on October 20, 2017 (GMT -0800)
Johnson Petersburg

Weather History for PAPG - February, 2013

Change the Weather History Date:

Saturday, February 2, 2013

  Actual Average Record
Temperature  
Mean Temperature 40 °F -  
Max Temperature 44 °F 34 °F 51 °F (1998)
Min Temperature 35 °F 26 °F 10 °F (2004)
Degree Days  
Heating Degree Days 26    
Moisture  
Dew Point 37 °F    
Average Humidity 86    
Maximum Humidity 93    
Minimum Humidity 76    
Precipitation  
Precipitation 0.80 in - - ()
Sea Level Pressure  
Sea Level Pressure 30.01 in    
Wind  
Wind Speed 4 mph (SE)    
Max Wind Speed 12 mph    
Max Gust Speed 24 mph    
Visibility 8 miles    
Events Rain    
Averages and records for this station are not official NWS values.
T = Trace of Precipitation, MM = Missing Value Source: NWS Daily Summary

Daily Weather History Graph

Daily Weather History Graph

Search for Another Location

Airport or City:

Trip Planner

Search our weather history database for the weather conditions in past years. The results will help you decide how hot, cold, wet, or windy it might be!

Date:

Astronomy

Feb. 02, 2013 Rise Set
Actual Time 7:47 AM AKST 4:24 PM AKST
Civil Twilight 7:05 AM AKST 5:06 PM AKST
Nautical Twilight 6:19 AM AKST 5:52 PM AKST
Astronomical Twilight 5:35 AM AKST 6:36 PM AKST
Moon 12:06 AM AKST (2/2) 9:30 AM AKST (2/2)
Length of Visible Light 10h 01m
Length of Day
8h 37m
Waning Gibbous, 58% of the Moon is Illuminated
Feb 2
Waning Gibbous
Feb 3
Last Quarter
Feb 9
New
Feb 17
First Quarter
Feb 25
Full

Hourly Weather History & Observations

Time (AKST) Temp. Windchill Dew Point Humidity Pressure Visibility Wind Dir Wind Speed Gust Speed Precip Events Conditions
12:16 AM 41.0 °F 39.0 °F 37.4 °F 87% 30.13 in 8.0 mi East 3.5 mph - 0.02 in   Overcast
12:36 AM 42.8 °F 38.6 °F 37.4 °F 81% 30.12 in 10.0 mi ESE 6.9 mph - 0.03 in   Overcast
12:56 AM 42.8 °F 39.3 °F 37.4 °F 81% 30.11 in 7.0 mi East 5.8 mph - 0.05 in   Overcast
1:16 AM 42.8 °F 38.0 °F 37.4 °F 81% 30.11 in 10.0 mi East 8.1 mph - 0.04 in   Overcast
1:36 AM 42.8 °F 37.5 °F 37.4 °F 81% 30.10 in 10.0 mi ESE 9.2 mph - 0.07 in   Overcast
1:56 AM 42.8 °F 37.5 °F 37.4 °F 81% 30.10 in 10.0 mi East 9.2 mph - 0.08 in   Overcast
2:16 AM 42.8 °F 40.1 °F 37.4 °F 81% 30.09 in 10.0 mi East 4.6 mph - 0.01 in   Overcast
2:36 AM 42.8 °F 38.0 °F 37.4 °F 81% 30.08 in 10.0 mi East 8.1 mph - 0.03 in   Overcast
2:56 AM 42.8 °F 38.0 °F 37.4 °F 81% 30.07 in 10.0 mi ESE 8.1 mph - 0.03 in   Overcast
3:16 AM 44.6 °F 39.2 °F 39.2 °F 81% 30.06 in 8.0 mi ESE 10.4 mph 16.1 mph 0.02 in   Overcast
3:36 AM 44.6 °F 38.8 °F 37.4 °F 76% 30.05 in 10.0 mi SE 11.5 mph 24.2 mph 0.04 in   Overcast
3:56 AM 44.6 °F 38.8 °F 37.4 °F 76% 30.04 in 10.0 mi ESE 11.5 mph 16.1 mph 0.07 in   Overcast
4:16 AM 44.6 °F - 37.4 °F 76% 30.04 in 10.0 mi Calm Calm - 0.04 in   Overcast
4:36 AM 44.6 °F 42.2 °F 37.4 °F 76% 30.05 in 10.0 mi West 4.6 mph - 0.07 in   Overcast
4:56 AM 42.8 °F - 37.4 °F 81% 30.05 in 10.0 mi Calm Calm - 0.10 in   Overcast
5:16 AM 42.8 °F 40.1 °F 37.4 °F 81% 30.05 in 10.0 mi WNW 4.6 mph - 0.05 in   Overcast
5:36 AM 41.0 °F 39.0 °F 37.4 °F 87% 30.05 in 10.0 mi SW 3.5 mph - 0.07 in   Overcast
5:56 AM 41.0 °F - 37.4 °F 87% 30.05 in 10.0 mi Calm Calm - 0.11 in   Overcast
6:16 AM 41.0 °F - 37.4 °F 87% 30.05 in 10.0 mi Calm Calm - 0.01 in   Overcast
6:36 AM 39.2 °F - 37.4 °F 93% 30.04 in 10.0 mi Calm Calm - 0.01 in   Overcast
6:56 AM 41.0 °F 35.8 °F 37.4 °F 87% 30.04 in 7.0 mi East 8.1 mph - 0.01 in   Overcast
7:16 AM 39.2 °F 35.9 °F 37.4 °F 93% 30.04 in 7.0 mi ESE 4.6 mph - 0.01 in   Overcast
7:36 AM 39.2 °F 35.9 °F 37.4 °F 93% 30.04 in 7.0 mi East 4.6 mph - 0.02 in   Overcast
7:56 AM 41.0 °F 38.0 °F 37.4 °F 87% 30.04 in 7.0 mi ESE 4.6 mph - 0.03 in   Overcast
8:16 AM 42.8 °F 41.1 °F 37.4 °F 81% 30.04 in 7.0 mi SE 3.5 mph - N/A   Overcast
8:36 AM 42.8 °F 39.3 °F 37.4 °F 81% 30.03 in 7.0 mi ESE 5.8 mph - N/A   Overcast
8:56 AM 42.8 °F 40.1 °F 37.4 °F 81% 30.02 in 10.0 mi ESE 4.6 mph - N/A   Overcast
9:16 AM 42.8 °F 38.6 °F 37.4 °F 81% 30.02 in 10.0 mi SE 6.9 mph - N/A   Overcast
9:36 AM 42.8 °F 41.1 °F 37.4 °F 81% 30.02 in 10.0 mi SE 3.5 mph - N/A   Overcast
9:56 AM 42.8 °F 39.3 °F 37.4 °F 81% 30.01 in 10.0 mi South 5.8 mph - 0.03 in   Overcast
10:16 AM 42.8 °F - 37.4 °F 81% 30.01 in 10.0 mi Calm Calm - 0.02 in   Overcast
10:36 AM 42.8 °F - 37.4 °F 81% 30.00 in 10.0 mi Calm Calm - 0.02 in   Overcast
10:56 AM 42.8 °F - 37.4 °F 81% 30.00 in 10.0 mi Calm Calm - 0.03 in   Overcast
11:16 AM 42.8 °F - 37.4 °F 81% 30.00 in 10.0 mi Calm Calm - 0.01 in   Overcast
11:36 AM 41.0 °F - 37.4 °F 87% 30.00 in 10.0 mi Calm Calm - 0.03 in   Overcast
11:56 AM 41.0 °F - 37.4 °F 87% 29.99 in 7.0 mi Calm Calm - 0.05 in   Overcast
12:16 PM 42.8 °F 38.6 °F 37.4 °F 81% 29.98 in 7.0 mi ESE 6.9 mph - 0.02 in   Overcast
12:36 PM 42.8 °F - 37.4 °F 81% 29.99 in 7.0 mi Calm Calm - 0.05 in   Overcast
12:56 PM 42.8 °F - 37.4 °F 81% 29.98 in 10.0 mi Calm Calm - 0.07 in   Overcast
1:16 PM 42.8 °F - 37.4 °F 81% 29.98 in 10.0 mi Calm Calm - 0.01 in   Overcast
1:36 PM 42.8 °F - 37.4 °F 81% 29.98 in 10.0 mi Calm Calm - 0.01 in   Overcast
1:56 PM 42.8 °F - 37.4 °F 81% 29.98 in 10.0 mi Calm Calm - 0.02 in   Overcast
2:16 PM 42.8 °F - 37.4 °F 81% 29.98 in 10.0 mi Calm Calm - N/A   Overcast
2:36 PM 41.0 °F - 37.4 °F 87% 29.98 in 10.0 mi Calm Calm - N/A   Overcast
2:56 PM 41.0 °F - 37.4 °F 87% 29.98 in 10.0 mi Calm Calm - 0.01 in   Overcast
3:36 PM 39.2 °F - 37.4 °F 93% 29.98 in 10.0 mi Calm Calm - 0.03 in   Overcast
3:56 PM 39.2 °F 37.0 °F 37.4 °F 93% 29.98 in 10.0 mi WNW 3.5 mph - 0.06 in   Overcast
4:16 PM 39.2 °F - 37.4 °F 93% 29.99 in 10.0 mi Calm Calm - 0.02 in   Overcast
4:36 PM 39.2 °F - 37.4 °F 93% 29.99 in 10.0 mi Calm Calm - 0.04 in   Overcast
4:56 PM 39.2 °F - 35.6 °F 87% 29.98 in 7.0 mi Calm Calm - 0.04 in   Overcast
5:16 PM 37.4 °F - 35.6 °F 93% 29.98 in 7.0 mi Calm Calm - N/A   Overcast
5:36 PM 37.4 °F - 35.6 °F 93% 29.98 in 7.0 mi Calm Calm - N/A   Overcast
5:56 PM 37.4 °F 34.9 °F 35.6 °F 93% 29.98 in 4.0 mi WSW 3.5 mph - N/A   Overcast
6:16 PM 37.4 °F - 35.6 °F 93% 29.98 in 4.0 mi Calm Calm - N/A   Overcast
6:36 PM 37.4 °F 33.8 °F 33.8 °F 87% 29.97 in 4.0 mi West 4.6 mph - N/A   Overcast
6:56 PM 37.4 °F - 35.6 °F 93% 29.97 in 5.0 mi Calm Calm - N/A   Overcast
7:16 PM 37.4 °F 34.9 °F 35.6 °F 93% 29.97 in 5.0 mi West 3.5 mph - N/A   Overcast
7:36 PM 37.4 °F - 35.6 °F 93% 29.97 in 5.0 mi Calm Calm - N/A   Overcast
7:56 PM 37.4 °F - 33.8 °F 87% 29.96 in 5.0 mi Calm Calm - N/A   Overcast
8:16 PM 35.6 °F - 33.8 °F 93% 29.96 in 5.0 mi Calm Calm - N/A   Overcast
8:36 PM 37.4 °F - 35.6 °F 93% 29.96 in 5.0 mi Calm Calm - N/A   Overcast
8:56 PM 37.4 °F - 35.6 °F 93% 29.97 in 5.0 mi Calm Calm - N/A   Overcast
9:16 PM 37.4 °F - 35.6 °F 93% 29.96 in 5.0 mi Calm Calm - N/A   Overcast
9:36 PM 37.4 °F - 35.6 °F 93% 29.97 in 5.0 mi Calm Calm - 0.01 in   Overcast
9:51 PM 37.4 °F - 35.6 °F 93% 29.97 in 5.0 mi Calm Calm - N/A Rain Light Rain
9:56 PM - - - N/A% - 5.0 mi North - - 0.01 in   Unknown
10:16 PM 37.4 °F - 35.6 °F 93% 29.97 in 5.0 mi Calm Calm - N/A   Unknown
10:36 PM 37.4 °F - 35.6 °F 93% 29.97 in 6.0 mi Calm Calm - N/A   Overcast
10:56 PM 37.4 °F - 35.6 °F 93% 29.97 in 5.0 mi Calm Calm - N/A   Overcast
11:16 PM 39.2 °F - 37.4 °F 93% 29.97 in 8.0 mi Calm Calm - N/A   Overcast
11:36 PM 39.2 °F - 35.6 °F 87% 29.95 in 10.0 mi Calm Calm - N/A   Overcast
11:56 PM 39.2 °F - 37.4 °F 93% 29.96 in 10.0 mi Calm Calm - N/A   Overcast